Location: Ku?niki
(51.4449°N, 17.8974°E)
Time: 01:43:27
(UTC+00:00)

SPOT 5 - Pass Details

Date: 18 September 2020
Orbit: 623 x 814 km, 98.3° (Epoch: 23 October)

Event Time Altitude Azimuth Distance (km) Brightness Sun altitude
Exits shadow 19:00:54 23° 69° (ENE) 1,625 4.3 -19.5°
Maximum altitude 19:01:35 24° 57° (ENE) 1,604 4.4 -19.6°
Drops below altitude 10° 19:05:44 10° 6° (N) 2,398 5.9 -20.2°
Sets 19:08:30 0° 353° (N) 3,347 6.9 -20.6°
